This demonstration page uses our WeatherBlox Daily Observations layout. Learn more.

Left ArrowRight Arrow

Hourly Observations for October 1, 2021

Temp ( °F °C ) Dew Point ( °F °C ) Humidity (%) Winds ( mph kmh ) Pressure ( in mb ) Visibility ( mi km ) Precip ( " mm )
12:56 am 00:56 Cloudy 58 14.4 55 12.8 90 90 NNW 8 13 30.11 1020 10 16 N/A
1:56 am 01:56 Cloudy 57 13.9 55 12.8 93 93 NW 8 13 30.10 1019 10 16 N/A
2:22 am 02:22 Cloudy 57 14 55 13 94 94 NNW 9 15 30.07 1018 10 16 N/A
2:56 am 02:56 Cloudy 57 13.9 55 12.8 93 93 NW 6 9 30.08 1019 10 16 N/A
3:56 am 03:56 Cloudy 58 14.4 56 13.3 93 93 NW 7 11 30.07 1018 10 16 N/A
4:56 am 04:56 Cloudy 58 14.4 56 13.3 93 93 NW 8 13 30.07 1018 10 16 N/A
5:56 am 05:56 Cloudy with Mist and Fog 57 13.9 56 13.3 96 96 WNW 5 7 30.09 1019 4 6 N/A
6:22 am 06:22 Cloudy 57 14 55 13 94 94 WNW 8 13 30.07 1018 10 16 N/A
6:56 am 06:56 Cloudy 58 14.4 56 13.3 93 93 W 5 7 30.09 1019 10 16 N/A
7:56 am 07:56 Cloudy 58 14.4 56 13.3 93 93 NW 6 9 30.09 1019 10 16 N/A
8:56 am 08:56 Cloudy 59 15 56 13.3 90 90 NW 6 9 30.10 1019 10 16 N/A
9:26 am 09:26 Cloudy with Mist and Fog 59 15 57 14 94 94 NW 7 11 30.08 1018 3 4 N/A
9:47 am 09:47 Cloudy with Mist and Fog 59 15 57 14 94 94 NW 6 9 30.08 1018 3 5 N/A
9:56 am 09:56 Cloudy with Mist and Fog 59 15 58 14.4 96 96 NW 8 13 30.09 1019 4 6 N/A
10:56 am 10:56 Cloudy 61 16.1 57 13.9 87 87 WNW 9 15 30.09 1019 10 16 N/A
11:23 am 11:23 Cloudy 61 16 57 14 88 88 NNW 7 11 30.08 1019 10 16 N/A
11:56 am 11:56 Cloudy 63 17.2 58 14.4 84 84 NW 6 9 30.09 1019 10 16 N/A
12:44 pm 12:44 Cloudy 63 17 57 14 83 83 NW 7 11 30.06 1018 10 16 N/A
12:56 pm 12:56 Cloudy 64 17.8 57 13.9 78 78 WNW 9 15 30.08 1019 10 16 N/A
1:56 pm 13:56 Cloudy 65 18.3 58 14.4 78 78 NW 7 11 30.07 1018 10 16 N/A
2:56 pm 14:56 Cloudy 65 18.3 57 13.9 76 76 NW 8 13 30.06 1018 10 16 N/A
3:56 pm 15:56 Cloudy 66 18.9 58 14.4 75 75 NW 6 9 30.05 1018 10 16 N/A
4:56 pm 16:56 Cloudy 65 18.3 58 14.4 78 78 NNW 7 11 30.06 1018 10 16 N/A
5:56 pm 17:56 Cloudy 65 18.3 58 14.4 78 78 NNW 5 7 30.06 1018 10 16 N/A
6:46 pm 18:46 Cloudy 64 18 57 14 78 78 N 3 6 30.02 1017 10 16 N/A
6:56 pm 18:56 Cloudy 65 18.3 58 14.4 78 78 N 5 7 30.05 1018 10 16 N/A
7:56 pm 19:56 Partly Cloudy 62 16.7 57 13.9 84 84 NNW 3 6 30.06 1018 10 16 N/A
8:07 pm 20:07 Mostly Cloudy 61 16 57 14 88 88 undefined N/A 30.04 1017 10 16 N/A
8:15 pm 20:15 Mostly Cloudy 63 17 57 14 83 83 W 5 7 30.03 1017 10 16 N/A
8:40 pm 20:40 Cloudy 61 16 57 14 88 88 NW 3 6 30.04 1017 10 16 N/A
8:56 pm 20:56 Mostly Cloudy 61 16.1 57 13.9 87 87 W 3 6 30.07 1018 10 16 N/A
9:13 pm 21:13 Partly Cloudy 61 16 55 13 83 83 N N/A 30.05 1018 10 16 N/A
9:56 pm 21:56 Clear 58 14.4 55 12.8 90 90 N N/A 30.08 1019 10 16 N/A
10:56 pm 22:56 Clear 56 13.3 54 12.2 93 93 NW 5 7 30.08 1019 10 16 N/A
11:56 pm 23:56 Clear 56 13.3 54 12.2 93 93 WNW 3 6 30.09 1019 10 16 N/A

Powered by AerisWeather